[[{"header":{"parameterUnit":"m.s-1","parameterCategory":1,"la1":30.2991,"la2":30.254,"lo1":-89.0895,"lo2":-89.0444,"dy":0.0017,"dx":0.0017,"nx":28,"ny":28,"refTime":"2025-03-16T21:00:00:Z","depth":0,"parameterNumber":2,"parameterNumberName":"U-component_of_WINDS"},"data":[0,0,0,0,0,0,0,0,0,0,0,0,0,0,0,0,0,0,0,0,0,0,0,0,0,0,0,0,0,0,0,0,0,0,0,0,0,0,0,0,0,0,0,0,0,0,0,0,0,0,0,0,0,0,0,0,0,0,6.0596,6.0597,0,6.0671,6.0671,6.0672,6.0652,6.0651,6.0649,6.0648,6.0726,6.073,6.0733,0,0,0,0,0,0,0,0,0,0,0,0,0,6.0442,6.0445,6.0596,6.0597,6.0598,6.067,6.0671,6.0672,6.0653,6.0651,6.0649,6.0647,6.0725,6.0729,6.0733,0,0,0,0,0,0,0,0,0,0,0,0,0,6.0512,6.0446,6.0596,6.0597,6.0598,6.067,6.0671,6.0673,6.0653,6.0651,6.0649,6.0646,6.0724,6.0729,6.0734,6.0811,0,0,6.075,6.0752,0,0,0,0,0,0,0,0,6.0508,6.0518,6.0596,6.0597,6.0598,6.065,6.0646,6.0719,6.0654,6.0632,6.0648,6.0645,6.0703,6.071,6.0728,6.0814,6.0818,6.075,6.0753,6.0756,6.0757,0,0,0,0,0,0,0,6.0503,6.0514,6.0626,6.0597,6.0598,6.0595,6.0603,6.066,6.0679,6.0634,6.0633,6.0642,6.0703,6.0723,6.073,6.0819,6.075,6.0755,6.0758,6.076,6.0976,6.0978,0,0,0,0,0,0,6.0497,6.0511,6.0623,6.0628,6.0547,6.06,6.0608,6.0636,6.0678,6.0683,6.0643,6.064,6.0716,6.0724,6.0733,6.0828,6.0756,6.076,6.0763,6.0973,6.0976,6.0979,0,0,0,0,0,0,6.0494,6.0507,6.062,6.0569,6.0583,6.0605,6.0636,6.0638,6.0659,6.0686,6.0689,6.066,6.0714,6.0725,6.0792,6.083,6.0763,6.0768,6.097,6.0974,6.0978,6.1017,0,0,0,0,0,0,6.049,6.0506,6.0534,6.057,6.0586,6.0677,6.0638,6.0641,6.0667,6.0664,6.0703,6.0707,6.0713,6.0785,6.0797,6.0836,6.0772,6.0967,6.0972,6.0977,6.1013,6.1022,6.103,0,0,0,0,0,6.0484,6.0542,6.0536,6.0549,6.0621,6.0679,6.0689,6.0694,6.067,6.07,6.0718,6.0706,6.0824,6.0792,6.0806,6.0847,6.0965,6.0971,6.0976,6.1009,6.102,6.103,0,0,0,0,0,0,6.051,6.0547,6.054,6.0611,6.0642,6.0676,6.0712,6.0706,6.0745,6.074,6.0746,6.0755,6.0824,6.0842,6.0805,6.0926,6.0891,6.09,6.0911,6.0922,6.0931,6.0925,6.0776,0,0,0,0,0,6.0524,6.0567,6.0597,6.0657,6.0673,6.069,6.0716,6.0718,6.0751,6.0764,6.0787,6.082,6.0865,6.0895,6.0937,6.1016,6.1025,6.1051,6.106,6.1067,6.1075,6.1121,6.1133,6.0999,6.0999,6.0998,0,0,6.0554,6.0579,6.0605,6.0663,6.0687,6.0734,6.0701,6.0751,6.0786,6.0772,6.0836,6.0855,6.0893,6.0966,6.1,6.0984,6.1114,6.1074,6.108,6.1084,6.1128,6.1141,6.1152,6.1003,6.1002,6.1001,0,0,6.0631,6.0653,6.0707,6.0733,6.0771,6.0782,6.0795,6.0831,6.0843,6.0908,6.0899,6.0942,6.1018,6.1047,6.1071,6.1164,6.1155,6.1178,6.1223,6.1268,6.1279,6.1288,6.1323,6.1336,6.1186,6.1186,6.1186,0,6.0662,6.073,6.0735,6.0787,6.0814,6.0804,6.086,6.0885,6.0935,6.0954,6.0935,6.1034,6.1058,6.114,6.1163,6.1182,6.12,6.1173,6.1277,6.1286,6.1295,6.1329,6.1342,6.1188,6.1188,6.1188,6.1187,0,6.0769,6.0817,6.0856,6.0905,6.0936,6.099,6.1005,6.1036,6.1037,6.1051,6.112,6.115,6.12,6.1219,6.122,6.1303,6.1291,6.1275,6.124,6.131,6.1342,6.1355,6.1192,6.1191,6.119,6.119,0,0,6.0863,6.0916,6.0931,6.0954,6.0997,6.1035,6.1089,6.1138,6.1166,6.1202,6.1249,6.1317,6.1302,6.133,6.1334,6.1374,6.1448,6.1352,6.1353,6.137,6.1545,6.1558,6.1572,6.1443,6.1445,6.1447,6.1542,0,6.0945,6.1039,6.1047,6.1133,6.1179,6.1172,6.122,6.1253,6.1269,6.1311,6.133,6.1378,6.1354,6.1371,6.141,6.1431,6.1483,6.1424,6.1489,6.1491,6.148,6.1588,6.1602,6.1689,6.1554,6.1556,6.1558,0,6.1052,6.1092,6.1183,6.1222,6.1242,6.1285,6.1332,6.1372,6.1411,6.142,6.1453,6.1453,6.1511,6.1475,6.1558,6.1517,6.1545,6.156,6.1563,6.157,6.1529,6.1599,6.1717,6.1731,6.1577,6.1575,6.1574,0,6.1114,6.1191,6.1255,6.1276,6.1323,6.1353,6.1375,6.1411,6.1441,6.1483,6.1503,6.1552,6.1579,6.1617,6.1631,6.1603,6.1714,6.1678,6.1725,6.1725,6.1749,6.1747,6.1874,6.1765,6.1765,6.1765,6.1764,0,6.1206,6.1262,6.1284,6.1324,6.1388,6.1398,6.1461,6.1481,6.1514,6.156,6.1557,6.16,6.1615,6.1662,6.1673,6.1742,6.1753,6.1764,6.1767,6.1765,6.1764,6.1783,6.1778,6.1768,6.1767,6.1767,6.1766,0,6.1285,6.1302,6.1372,6.1412,6.1424,6.1469,6.1504,6.1544,6.156,6.1618,6.1632,6.1659,6.1714,6.1732,6.1798,6.1806,6.1886,6.1882,6.1873,6.1873,6.192,6.1916,6.2064,6.2085,6.1961,6.1962,6.1963,0,6.1342,6.1386,6.143,6.1461,6.1483,6.1531,6.1563,6.1575,6.1608,6.1657,6.1692,6.1746,6.179,6.1879,6.1905,6.1957,6.1956,6.2004,6.1963,6.1961,6.1958,6.1956,6.1962,6.2012,6.2013,6.2014,6.2015,0,6.1443,6.145,6.1495,6.1544,6.1581,6.162,6.1658,6.1683,6.1702,6.1739,6.1795,6.183,6.1899,6.1954,6.2007,6.2031,6.2027,6.2028,6.2042,6.204,6.2034,6.204,6.1895,6.2024,6.2023,6.2022,6.2022,6.2022,6.1515,6.1554,6.1593,6.1643,6.1673,6.1709,6.175,6.1772,6.1819,6.1875,6.188,6.1942,6.1982,6.2054,6.2081,6.213,6.2117,6.2136,6.2142,6.2146,6.2151,6.2025,6.214,6.214,6.2139,6.2139,6.2139,0,6.1617,6.1642,6.1689,6.1742,6.1783,6.1776,6.1818,6.1853,6.1907,6.1945,6.1989,6.2055,6.211,6.2141,6.2196,6.223,6.223,6.2244,6.2242,6.2248,6.2159,6.2142,6.2243,6.2243,6.2243,6.2243,6.2243,6.2243,6.1675,6.1742,6.1755,6.1838,6.1863,6.1922,6.1948,6.1982,6.2013,6.2087,6.2132,6.2152,6.2188,6.2246,6.2297,6.2305,6.2326,6.2342,6.2349,6.2265,6.2254,6.2244,6.2228,6.2346,6.2346,6.2435,6.2436,6.2436]},{"header":{"parameterUnit":"m.s-1","parameterCategory":1,"la1":30.2991,"la2":30.254,"lo1":-89.0895,"lo2":-89.0444,"dy":0.0017,"dx":0.0017,"nx":28,"ny":28,"refTime":"2025-03-16T21:00:00:Z","depth":0,"parameterNumber":3,"parameterNumberName":"V-component_of_WINDS"},"data":[0,0,0,0,0,0,0,0,0,0,0,0,0,0,0,0,0,0,0,0,0,0,0,0,0,0,0,0,0,0,0,0,0,0,0,0,0,0,0,0,0,0,0,0,0,0,0,0,0,0,0,0,0,0,0,0,0,0,-2.4539,-2.4538,0,-2.4451,-2.445,-2.4449,-2.4475,-2.4477,-2.4479,-2.4481,-2.4384,-2.438,-2.4376,0,0,0,0,0,0,0,0,0,0,0,0,0,-2.4726,-2.4722,-2.4539,-2.4538,-2.4537,-2.4451,-2.445,-2.4449,-2.4475,-2.4477,-2.448,-2.4482,-2.4386,-2.4381,-2.4375,0,0,0,0,0,0,0,0,0,0,0,0,0,-2.4642,-2.4721,-2.454,-2.454,-2.4539,-2.4452,-2.445,-2.4449,-2.4475,-2.4477,-2.448,-2.4483,-2.4387,-2.4381,-2.4375,-2.4279,0,0,-2.4355,-2.4352,0,0,0,0,0,0,0,0,-2.4646,-2.4635,-2.4541,-2.454,-2.4539,-2.4477,-2.448,-2.4391,-2.4474,-2.4499,-2.4481,-2.4484,-2.4413,-2.4404,-2.4381,-2.4275,-2.427,-2.4354,-2.4351,-2.4348,-2.4346,0,0,0,0,0,0,0,-2.4652,-2.4639,-2.4504,-2.454,-2.4538,-2.4543,-2.4534,-2.4464,-2.4441,-2.4497,-2.4499,-2.4488,-2.4412,-2.4387,-2.4379,-2.4269,-2.4355,-2.4349,-2.4345,-2.4342,-2.4079,-2.4076,0,0,0,0,0,0,-2.4659,-2.4643,-2.4507,-2.4502,-2.4601,-2.4538,-2.4528,-2.4494,-2.4442,-2.4437,-2.4486,-2.449,-2.4397,-2.4387,-2.4376,-2.426,-2.4348,-2.4342,-2.4338,-2.4082,-2.4079,-2.4075,0,0,0,0,0,0,-2.4663,-2.4647,-2.4511,-2.4573,-2.4556,-2.4531,-2.4493,-2.4491,-2.4466,-2.4434,-2.4429,-2.4465,-2.4399,-2.4385,-2.4303,-2.4257,-2.4339,-2.4333,-2.4086,-2.4081,-2.4077,-2.4027,0,0,0,0,0,0,-2.4669,-2.4648,-2.4613,-2.4572,-2.4553,-2.4441,-2.4491,-2.4487,-2.4456,-2.446,-2.4413,-2.4408,-2.44,-2.4313,-2.4297,-2.4249,-2.4328,-2.409,-2.4084,-2.4078,-2.4033,-2.4022,-2.4012,0,0,0,0,0,-2.4675,-2.4601,-2.4611,-2.4594,-2.4508,-2.4438,-2.4427,-2.4421,-2.4452,-2.4415,-2.4394,-2.4409,-2.4265,-2.4304,-2.4287,-2.4236,-2.4093,-2.4086,-2.4079,-2.4038,-2.4024,-2.4012,0,0,0,0,0,0,-2.4634,-2.4596,-2.4606,-2.4517,-2.4481,-2.4443,-2.4396,-2.4407,-2.436,-2.4365,-2.4359,-2.4348,-2.4264,-2.4243,-2.4287,-2.4141,-2.4183,-2.4172,-2.4158,-2.4145,-2.4134,-2.414,-2.4323,0,0,0,0,0,-2.4616,-2.4564,-2.4532,-2.4456,-2.4438,-2.442,-2.439,-2.4389,-2.4351,-2.4335,-2.4308,-2.4269,-2.4215,-2.4179,-2.4127,-2.4031,-2.402,-2.3988,-2.3977,-2.3969,-2.3958,-2.3905,-2.389,-2.4052,-2.4052,-2.4052,0,0,-2.4575,-2.4547,-2.4514,-2.4448,-2.442,-2.4364,-2.4407,-2.4347,-2.4305,-2.4325,-2.4246,-2.4226,-2.4181,-2.4092,-2.4051,-2.4071,-2.3912,-2.396,-2.3953,-2.3947,-2.3896,-2.3881,-2.3867,-2.4047,-2.4048,-2.4049,0,0,-2.4472,-2.4447,-2.4381,-2.4353,-2.4311,-2.43,-2.4284,-2.4245,-2.4232,-2.4154,-2.4168,-2.4118,-2.4025,-2.3993,-2.3964,-2.3852,-2.3863,-2.3835,-2.3778,-2.3727,-2.3714,-2.3702,-2.366,-2.3646,-2.3826,-2.3825,-2.3825,0,-2.4426,-2.4345,-2.4345,-2.4284,-2.4253,-2.4272,-2.4204,-2.4176,-2.4118,-2.4096,-2.412,-2.4005,-2.3976,-2.3879,-2.3852,-2.3829,-2.3809,-2.3839,-2.3716,-2.3705,-2.3694,-2.3654,-2.3638,-2.3822,-2.3823,-2.3823,-2.3823,0,-2.429,-2.4234,-2.4185,-2.4132,-2.4096,-2.4032,-2.402,-2.3984,-2.3987,-2.3973,-2.3893,-2.386,-2.3802,-2.378,-2.3781,-2.3683,-2.3696,-2.3718,-2.376,-2.3675,-2.3637,-2.3622,-2.3818,-2.3819,-2.382,-2.382,0,0,-2.4156,-2.4105,-2.4087,-2.4063,-2.4019,-2.3975,-2.3911,-2.3857,-2.3825,-2.3786,-2.3731,-2.3653,-2.3674,-2.3641,-2.364,-2.3595,-2.3506,-2.3622,-2.3621,-2.36,-2.3394,-2.3376,-2.3358,-2.3515,-2.3512,-2.351,-2.3397,0,-2.4048,-2.3939,-2.3937,-2.3835,-2.3783,-2.38,-2.3745,-2.3711,-2.3697,-2.3649,-2.3633,-2.3577,-2.361,-2.359,-2.3547,-2.3526,-2.3464,-2.3535,-2.3461,-2.3459,-2.3469,-2.3339,-2.3319,-2.3214,-2.3382,-2.338,-2.3378,0,-2.3907,-2.3865,-2.3759,-2.3723,-2.3701,-2.3651,-2.3601,-2.3556,-2.3518,-2.3511,-2.3476,-2.3482,-2.3415,-2.3462,-2.3369,-2.3417,-2.3388,-2.3373,-2.3369,-2.336,-2.3411,-2.3323,-2.3181,-2.3164,-2.3355,-2.3357,-2.3358,0,-2.3818,-2.3735,-2.3661,-2.364,-2.3597,-2.3561,-2.3541,-2.3506,-2.3474,-2.343,-2.3409,-2.3357,-2.3328,-2.3288,-2.3279,-2.3313,-2.3186,-2.3231,-2.3176,-2.3176,-2.3145,-2.3147,-2.2993,-2.313,-2.3131,-2.3131,-2.3131,0,-2.3696,-2.363,-2.362,-2.3574,-2.35,-2.3499,-2.3425,-2.3408,-2.3377,-2.3326,-2.3339,-2.3291,-2.3283,-2.3233,-2.3226,-2.315,-2.3137,-2.3128,-2.3126,-2.3125,-2.3126,-2.3103,-2.3109,-2.3127,-2.3128,-2.3129,-2.3129,0,-2.3583,-2.3574,-2.3494,-2.3461,-2.3451,-2.3397,-2.3368,-2.3323,-2.3312,-2.3248,-2.3233,-2.3213,-2.3155,-2.3143,-2.3074,-2.3069,-2.2978,-2.2984,-2.2991,-2.2991,-2.2935,-2.2939,-2.2759,-2.2735,-2.289,-2.2889,-2.2888,0,-2.3504,-2.3454,-2.3416,-2.3385,-2.3364,-2.3312,-2.328,-2.3277,-2.3243,-2.3197,-2.3157,-2.3101,-2.3055,-2.2961,-2.294,-2.2887,-2.2891,-2.2832,-2.2882,-2.2883,-2.2887,-2.2889,-2.2884,-2.2821,-2.2819,-2.2818,-2.2817,0,-2.3366,-2.3364,-2.3318,-2.3271,-2.3232,-2.3194,-2.3158,-2.3131,-2.3123,-2.3084,-2.3026,-2.2991,-2.2921,-2.2864,-2.2812,-2.279,-2.28,-2.2801,-2.2785,-2.2782,-2.2787,-2.2782,-2.2961,-2.2805,-2.2806,-2.2807,-2.2807,-2.2808,-2.3266,-2.3222,-2.3189,-2.3137,-2.311,-2.3076,-2.3033,-2.3017,-2.2969,-2.2913,-2.2915,-2.2851,-2.2814,-2.2745,-2.272,-2.2669,-2.2687,-2.2664,-2.2658,-2.2651,-2.2645,-2.2798,-2.2659,-2.266,-2.266,-2.266,-2.266,0,-2.3126,-2.3106,-2.3059,-2.3009,-2.2968,-2.2986,-2.2947,-2.2911,-2.2855,-2.2821,-2.2777,-2.271,-2.2656,-2.2631,-2.2577,-2.2541,-2.2544,-2.2526,-2.2528,-2.2522,-2.2633,-2.2651,-2.2524,-2.2524,-2.2524,-2.2524,-2.2524,-2.2524,-2.3048,-2.2975,-2.2969,-2.2882,-2.2863,-2.2801,-2.2778,-2.2746,-2.2719,-2.2644,-2.26,-2.2586,-2.2555,-2.2499,-2.245,-2.2444,-2.2422,-2.2401,-2.2397,-2.2501,-2.2514,-2.2527,-2.2544,-2.2397,-2.2397,-2.229,-2.2289,-2.2288]}]]